> Main Relay        ON    :  DCM               ON
> SRAM              ON    :  Packet            1200bps
> JTA               OFF   :  JTD               ON
> GAS               ON    :  SAS               ON
> UVC               ON    :  UVC Level         2
> PCU Mode          AUTO  :  PCU Level         1
> Battery Mode      TRIC  :  Battery Logic     TRIC
> Data Collect Mode ---   :  Data Replay Mode  ---
> Packet Mode       ---   :  Packet Mode       DATA
> Digitalker Mode   OFF   :  Digital Tx        ---
> CW Telemetry      OFF   :  
> Spin Period                  341.5 [msec]
> Sun Angle                     75.5 [deg]
> Solar Current               1441.2 [mA]
> Battery Current             -118.4 [mA]
> Battery Voltage               15.9 [V]
> Battery Middle Voltage         7.0 [V]
> Bus Voltage                   17.3 [V]
> +5V Stabilizer Voltage         5.1 [V]
> -5V Stabilizer Voltage        -4.9 [V]
> +10V Stabilizer Voltage       10.1 [V]
> Analog  Tx Power             -91.6 [mW]
> Digital Tx Power            1296.8 [mW]
> Battery Cell Temp.            10.4 [C]
> Structure Temp. 1              9.3 [C]
> Structure Temp. 2              9.3 [C]
> Structure Temp. 3             10.8 [C]
> Structure Temp. 4             10.4 [C]
> GAS-X                      43627.4 [nT]
> GAS-Z                      46568.6 [nT]
> Solar Panel Temp. 1           17.9 [C]
> Solar Panel Temp. 2           11.1 [C]
> Solar Panel Temp. 3           13.4 [C]
> Digital Tx Temp.              15.9 [C]
----------------------------------------------
Name : JE9PEL/1 脇田
Mail : je9pel@jamsat.or.jp
URL  : http://www.ne.jp/asahi/hamradio/je9pel/
QTH  : Yokohama, Japan
Date : Apr 18, 2000
----------------------------------------------  
 ==================================================================================

  4)JARL のホームページに運用予定が記載されていましたのでご紹介します.
       ( http://www.jarl.or.jp/Japanese/3_Fuji/new/uy.htm )

        ■ ふじ3号/FOー29/JAS-2 ■  
   
     *** 運用予定について ***   

 04月17日 〜 04月20日 デジタル系1200bpsメールボックス運用 
 04月21日 〜 05月07日 アナログ系運用 

 *なお,運用予定は都合により変更することがありますのでご了承願います。

 照会先 : lab@jarl.or.jp

 最新の情報はテレホンサービス(03−3942−1000)をお聞きください。  
 以後の運用につきましては4月下旬にお知らせいたします。
 
-----------------------    FO−20(JAS-1b)道要素   -------------------------
  5)
  ■ 軌道要素1 :出典はFO-29「ふじ3号」に同じ.
  
  FO-20
 1 20480U 90013C   00103.89063160  .00000101  00000-0  30224-3 0 02230
 2 20480 099.0406 246.5481 0539983 203.0862 154.5122 12.83269893476909

  ■ 軌道要素2 :出典はFO−29「ふじ3号」に同じ.
               
  Satellite: FO-20
 Catalog number: 20480
 Epoch time:      00103.89063160
 Element set:    0223
 Inclination:      099.0406 deg
 RA of node:       246.5481 deg
 Eccentricity:    0.0539983
 Arg of perigee:   203.0862 deg
 Mean anomaly:     154.5122 deg
 Mean motion:   12.83269893 rev/day
 Decay rate:       1.01e-06 rev/day^2
 Epoch rev:           47690
 Checksum:              285

 --------------------------------------------------------------------------------
 6)[jamsat‐bb:5237]FO‐20のビーコンとしてJO2OXL局の落合 卓史氏が投稿されて
   いましたので転載させて頂きました.

  今思い出したのですが,16日の午後のこと.
 FO-20にQRVしようとして,ビーコン周波数をワッチしていました.
 (いつもビーコンを聞いてからQRVするのが習慣になっています.)
 しかし,聞こえてきません.軌道計算を間違えたのかと思ったくらいです.
 でも,トラポンの周波数を聞くと4局ほどがQRVしていました.
 いつも通りの入感ぶりでした.
 当時は特に気に止めなかったのですが,今思うとなんだか心配になってきました.

 1週間前はきれいなトーンがしっかり聞こえたのに.
 ビーコンが急に弱くなったような感じです.

 それとも,私の設備のトラブルでしょうか?
 (あの日は雨が降っていました.水が同軸に入ったのかな?)

 現在はどうでしょう?

 どうしたのでしょう.心配です.

 /EX
 ------------------------------------------------
 Ochiai Takushi(落合 卓史) <jo2oxl@jarl.com>
 QTH:静岡県駿東郡清水町
 JCG#18009
 GL#PM95KC
 Packet:JO2OXL@JF2ZOH.18.JNET2.JPN.AS
 tel & fax +81-559-31-6640
 de JO2OXL _.. .  .___ ___ ..___ ___ _.._ ._..
 73 TU VA __... ...__  _ .._  ..._._
 ------------------------------------------------

         ■ ふじ2号/FO−20/JAS-1b ■      
            
          「ふじ2号」 現況                                                                                  
             
   JAS-1b(ふじ2号)のCWテレメトリ信号に,1997年10月12日12時(JST)の
 日本上空通過時,3桁の数字が繰り返されるはずが3個の長音の繰り返しとなっているという
 異常が発見されました。この不具合は次の通過時からは回復していましたが13日15時20分の
 通過時に再び観測されました。現在はA0の送信が続いています。衛星のアナログ系中継モード
 動作は異常が無く,正常時のテレメトリ内容からは衛星の動作に異常は認められません。従って,
 直ちに衛星のミッションに影響することは無いと予想されますので,当面はアナログ系中継
 モードを継続します。衛星は既に打ち上げてから7年8ヶ月を経ておりますので,今後は監視を
 強化する予定です。アマチュア各位のレポートをお待ちします。
 -------------------------------------------------------------------------------- 
  1997年10月14日 00時35分 確認のテレメトリ音 151 KB (A0) 
  1997年10月14日 11時10分 確認のテレメトリ音 216 KB (異常キーイング) 

  以上 JARLのホ−ムページの http://www.jarl.or.jp/Japanese/3_Fuji/new/fuji.htm
                                           
   =============   JAS-2 (ふじ3号)と現在までの情報   ===========
  
  A.電話によるふじ3号の運用情報
      社団法人日本アマチュア連盟によるサービス
           TEL .   03− 3942 − 1000
  B.アマチュア無線FAXサービス
      JARLによるふじ3号の軌道情報(オービットカレンダー)
         FAX No.  03− 3233 −0055
  C.WWWブラウザで情報を簡単に見れる人のためにJAS−2
     ふじ3号の衛星としての運用されるまでの名前)の概要、打ち上げ
     までの状況、運用中における状況を説明したホームページを紹介し
     ておきます.
     社団法人日本アマチュア無線連盟(JARL)のホームページ

          http://www.jarl.or.jp/Japanese/3_Fuji/jasmenu.htm
 
     宇宙開発事業団(NASDA)ホームページ 
          http://www.nasda.go.jp/
         打上げ衛星 :地球観測プラットフォーム技術衛星(ADEOS) 
                       アマチュア衛星3号(JAS-2)
          http://yyy.tksc.nasda.go.jp/Home/Press/Press-j/jas-2_j.html        

  D.JAMSATによる軌道情報の活用
        JAMSATのホームページまたはjamsat−kepsの軌道要素より
      衛星の軌道情報を得る.
     JAMSATホームページ
               URL    http://www.jamsat.or.jp
       上記ホームページでは各地で行われるアマチュア通信衛星に関する
      ミューティングのお知らせや世界のアマチュア衛星に関する情報が
      満載されています.
 ========================================================================  
     JAMSATのメンバーのご協力によりJH6MME(高山 秀造)が
    執筆・編集を担当しております.ご指摘の意見、疑問やこのようにしたら
    というアイデアがありましたら小さなことでもかまいませんので気軽に下
    記アドレスまでご連絡ください.jamsat−newsからjas2
    infoへの転載をJH4PHW局坂井さんに担当して頂いております.  
                  E-mail : jh6mme@jamsat.or.jp : jh4phw@jamsat.or.jp
 ===============================   END  ===============================